Location: Bremen
(53.0833°N, 8.8000°E)
Time: 13:58:22
(UTC+02:00)

ISS - Pass Details

Date: 27 April 2025
Orbit: 416 x 419 km, 51.6° (Epoch: 14 May)

Event Time Altitude Azimuth Distance (km) Brightness Sun altitude
Exits shadow 03:45:44 22° 155° (SSE) 968 -2.2 -16.3°
Maximum altitude 03:45:58 22° 149° (SSE) 963 -2.2 -16.3°
Drops below altitude 10° 03:48:39 10° 96° (E) 1,497 -0.5 -16.1°
Sets 03:51:02 0° 80° (E) 2,364 0.8 -15.9°
